THAICOM 6

Last updated on Sun Jun 21 2026 00:03:06 GMT+0000 (Coordinated Universal Time)

1 39500U 14002A 26171.40753872 -.00000126 00000+0 00000+0 0 9995 2 39500 0.0737 106.6790 0004448 4.5118 22.6433 1.00272328 45491
UTC large
Height (km)
Speed (km/s)
/
Latitude / Longitude
Inclination (degrees)
Orbital Period (minutes)
Azimuth
Elevation
Range (km)
Doppler Factor

Next 0 passes for location: London (51.5072 / 0.1276)

No passes found over London.
THAICOM 6